User: anonymous
Location: Newsoms
(36.6240°N, 77.1250°W)
Time: 21:49:11
(UTC-04:00)
Language:

BREEZE-M DEB (TANK) - Orbit

View from above orbital plane
View from above orbital plane
View from above satellite
View from above satellite

Ground track
Ground track

The orbit data is extracted from the following two-line orbital elements,

1 29649U 06056B   14108.09388929  .00004901  00000-0  81909-3 0  8835
2 29649 049.5356 354.4397 5426341 163.9425 356.6324 04.93138803130275
Epoch (UTC): 18 April 2014 02:15:12
Eccentricity: 0.5426341
inclination: 49.5356°
perigee height: 290 km
apogee height: 16113 km
right ascension of ascending node: 354.4397°
argument of perigee: 163.9425°
revolutions per day: 4.93138803
mean anomaly at epoch: 356.6324°
orbit number at epoch: 13027

The dashed part of the orbit path shows where the satellite is in the earth's shadow,  

DLR